星链-5858 (STARLINK-5858 )

导读 | 豆包AI

STARLINK-5858是美国SpaceX公司星链星座的成员卫星,于2023年7月7日发射升空,运行在近地轨道,属于星链项目的第二代卫星。作为全球最大卫星互联网星座的组成部分,它为全球偏远地区提供低延迟高速宽带互联网接入,助力弥合数字鸿沟,也可为应急通信、航空航海联网等场景提供服务,是SpaceX构建全球卫星网络的重要节点。

基本信息
目录编号:
57264
目录名称:
STARLINK-5858
国际标识:
2023-094AY
轨道中心:
EARTH
卫星名称:
星链-5858
卫星全名:
星链-5858 (STARLINK-5858 )
卫星状态:
在轨 (已飞行1028 天)
发射日期:
2023-07-07 UTC
国别 :
美国 (US)
星等 :
--
轨道信息
数据来源 国际轨道数据 AOE轨道数据
星历时间 2026-04-30T12:00:01+0800
6小时前
查看轨道信息
2026-04-25T05:00:00+0800
5天前
查看轨道信息
半长轴 6861.161km 6863.677km
偏心率 0.0001567 0.0001674
轨道倾角 43.002° 43.005°
近地点辐角 277.038° 296.709°
升交点赤经 89.084° 118.956°
平近点角 85.343° 96.784°
近地点 481.948km 484.391km
远地点 484.1km 486.689km
周期 94.266分钟 94.318分钟
每日圈数 15.275886 15.267486
详细信息
固有亮度:
5
最大亮度:
2.4
卫星平台:
Starlink v1.5
覆盖范围:
全球
运营商:
太空探索技术公司
运营商所在国:
美国
制造商(研发单位):
太空探索技术公司
制造商所在国:
美国
使用方式:
暂无
卫星简介
星链(Starlink)计划是由太空探索技术公司(SpaceX)提出的一个巨型低轨卫星互联网星座项目,计划在2019年至2024年间在太空搭建由约1.2万颗卫星组成的“星链”网络,其中1584颗将部署在地球上空550千米处的近地轨道,并从2020年开始工作。该卫星仍在工作。
2D轨道图
3D轨道图
轨道高度分析图
轨道倾角分析图
轨道综合分析图
查看轨道综合分析图